CDT,Max TemperatureF,Mean TemperatureF,Min TemperatureF,Max Dew PointF,MeanDew PointF,Min DewpointF,Max Humidity, Mean Humidity, Min Humidity, Max Sea Level PressureIn, Mean Sea Level PressureIn, Min Sea Level PressureIn, Max VisibilityMiles, Mean VisibilityMiles, Min VisibilityMiles, Max Wind SpeedMPH, Mean Wind SpeedMPH, Max Gust SpeedMPH,PrecipitationIn, CloudCover, Events, WindDirDegrees
2012-10-1,79,67,54,47,41,32,66,46,25,29.91,29.87,29.83,10,10,10,22,7,28,0.00,7,,7
2012-10-2,77,63,48,49,42,37,66,48,29,29.95,29.90,29.85,10,10,10,10,4,13,0.00,0,,347
2012-10-3,80,64,48,48,41,33,80,50,19,29.95,29.90,29.85,10,10,10,18,6,24,0.00,1,,170
2012-10-4,65,56,46,45,37,30,61,49,36,30.27,30.14,29.91,10,10,10,29,14,36,0.01,6,Rain,305
2012-10-5,52,44,36,29,25,19,70,50,29,30.31,30.27,30.21,10,10,9,22,9,25,0.00,4,,306
2012-10-6,46,38,30,25,23,20,63,54,45,30.34,30.30,30.27,10,10,10,18,8,23,0.00,4,,326
2012-10-7,57,42,27,27,22,18,85,54,22,30.30,30.21,30.07,10,10,10,17,6,23,0.00,1,,227
2012-10-8,68,53,38,34,31,26,70,47,24,30.06,29.94,29.83,10,10,10,28,15,38,0.00,4,,199
2012-10-9,60,49,37,42,36,29,76,61,46,30.10,29.92,29.82,10,10,10,23,10,28,0.03,7,Rain,274
2012-10-10,60,46,31,29,25,19,75,48,20,30.24,30.16,30.09,10,10,10,18,8,23,0.00,1,,242
2012-10-11,70,57,44,37,31,23,62,46,29,30.35,30.13,30.05,10,10,10,24,13,30,0.00,4,,297
2012-10-12,62,50,38,46,25,15,77,47,17,30.43,30.30,30.09,10,10,5,20,11,28,0.05,4,Rain,105
2012-10-13,77,65,53,65,59,46,97,81,64,30.04,29.80,29.62,10,5,1,21,12,28,0.75,8,Rain-Thunderstorm,173
2012-10-14,62,55,47,58,49,39,93,72,51,29.95,29.72,29.52,10,9,3,31,14,40,0.19,6,Rain,320
2012-10-15,70,56,41,43,40,36,82,57,32,30.01,29.94,29.83,10,10,10,12,5,15,0.00,2,,211
2012-10-16,77,65,52,51,47,43,72,54,36,29.82,29.56,29.44,10,10,10,21,11,25,0.00,2,,188
2012-10-17,64,56,48,53,45,32,86,65,44,29.50,29.42,29.34,10,10,9,38,15,46,0.06,7,Rain,257
2012-10-18,51,48,44,45,39,26,92,65,38,29.46,29.42,29.38,10,8,2,33,18,43,0.42,8,Rain,273
2012-10-19,49,46,43,45,42,39,93,85,76,29.79,29.63,29.45,10,8,2,23,15,31,0.07,8,Rain,304
2012-10-20,60,53,46,45,42,41,82,67,51,29.88,29.83,29.78,10,10,10,12,5,15,0.00,5,,189
2012-10-21,81,64,46,62,52,42,86,66,45,29.86,29.81,29.76,10,10,9,20,9,23,0.00,2,,133
2012-10-22,73,69,64,66,64,61,93,83,73,29.83,29.78,29.75,10,9,3,14,7,20,0.29,7,Rain-Thunderstorm,109
2012-10-23,75,68,61,65,62,57,90,79,68,29.80,29.75,29.68,10,9,2,18,9,24,0.02,6,Rain,165
2012-10-24,77,67,57,66,64,58,93,79,64,29.79,29.73,29.65,10,10,7,18,9,22,T,8,,174
2012-10-25,57,48,39,55,42,28,93,78,62,30.20,29.81,29.59,10,7,2,29,18,45,0.11,8,Rain-Thunderstorm,322
2012-10-26,45,39,33,28,26,24,75,62,49,30.47,30.41,30.31,10,10,10,18,9,26,0.00,6,,325
2012-10-27,46,41,36,28,24,23,70,56,41,30.43,30.36,30.15,10,10,9,8,3,12,0.00,7,,16
2012-10-28,50,41,32,25,22,19,69,52,34,30.39,30.34,30.29,10,10,10,8,4,14,0.00,3,,112
2012-10-29,52,44,36,31,26,19,64,52,39,30.34,30.28,30.18,10,10,10,15,8,,0.00,5,,133
2012-10-30,54,43,31,28,27,25,78,57,36,30.19,30.11,30.04,10,10,10,10,6,,0.00,3,,25
2012-10-31,57,44,31,29,25,21,75,52,28,30.09,30.04,29.99,10,10,10,13,5,18,0.00,2,,325